Flag for Norway Weather past 2 weeks in Osøyro, Norway

Now
67 °F

Sunny.


Feels Like: 67 °F
Forecast: 54 / 61 °F
Wind: 6 mph from North

Location: Bergen / Flesland

Current Time: Jul 29, 2015 at 12:16:42 PM

Latest Report: Jul 29, 2015 at 11:00 AM


Visibility: 22 mi

Pressure: 29.41 "Hg

Humidity: 54%

Dew point: 50 °F

Location of OsøyroLocation

Historic Weather in Osøyro — Graph

°F

Osøyro temperature yesterday

Maximum temperature yesterday: 66 °F (at 3:00 PM)
Minimum temperature yesterday: 49 °F (at 4:00 AM)
Average temperature yesterday: 57 °F

Past Weeks' High & Low Weather Summary

 TemperatureHumidityPressure
High67 °F (Jul 29, 11:00 AM)97% (Jul 25, 3:00 AM)30.16 "Hg (Jul 25, 3:00 AM)
Low46 °F (Jul 17, 6:00 AM)45% (Jul 17, 5:00 PM)29.41 "Hg (Jul 29, 11:00 AM)
Average55 °F81%29.75 "Hg
* Reported Jul 14 11:00 AM — Jul 29 11:00 AM, Osøyro, Weather by CustomWeather, © 2015

Note: Actual official high and low records may vary slightly from our data, if they occured in-between our weather recording intervals... More about our weather records

Advertising

Osøyro weather history for previous 24 hours

 ConditionsComfort  
Time TempWeatherWind HumidityBarometerVisibility
11:00 AM
Wed, Jul 29
67 °FSunny.6 mph54%29.41 "Hg22 mi
10:00 AM65 °FSunny.5 mph60%29.44 "Hg22 mi
9:00 AM61 °FPassing clouds.5 mph69%29.44 "Hg25 mi
8:00 AM56 °FSunny.2 mph86%29.44 "Hg22 mi
6:00 AM52 °FScattered clouds.1 mph95%29.47 "Hg12 mi
4:00 AM52 °FPassing clouds.2 mph94%29.47 "Hg17 mi
3:00 AM53 °FPassing clouds.2 mph94%29.50 "Hg16 mi
2:00 AM53 °FOvercast.2 mph93%29.50 "Hg16 mi
1:00 AM54 °FOvercast.3 mph92%29.50 "Hg16 mi
12:00 AM54 °FOvercast.5 mph91%29.53 "Hg16 mi
10:00 PM
Tue, Jul 28
56 °FOvercast.6 mph86%29.53 "Hg17 mi
9:00 PM58 °FOvercast.6 mph82%29.50 "Hg15 mi
8:00 PM60 °FOvercast.5 mph75%29.50 "Hg16 mi
7:00 PM62 °FPassing clouds.6 mph62%29.50 "Hg22 mi
6:00 PM64 °FPassing clouds.6 mph61%29.50 "Hg19 mi
5:00 PM64 °FScattered clouds.6 mph59%29.50 "Hg22 mi
4:00 PM65 °FPartly sunny.5 mph55%29.50 "Hg25 mi
3:00 PM66 °FScattered clouds.3 mph52%29.50 "Hg19 mi
2:00 PM65 °FPassing clouds.3 mph55%29.50 "Hg25 mi
1:00 PM64 °FPassing clouds.3 mph61%29.50 "Hg19 mi
12:00 PM62 °FPartly sunny.3 mph67%29.50 "Hg19 mi
Weather by CustomWeather, © 2015

See weather overviewHow to use our weather pages